Starlink 31521

operational
NORAD ID: 59015 Int'l Des: 2024-036 Owner: SPXS Country: US Constellation: starlink
LEOCIRCULAR

Über Starlink 31521

Beschreibung wird geladen...

Live-Position

3D-Globus wird geladen...

Nächste Überflüge

Höhenverlauf

Altitude vs Time

uPlot chart will show altitude changes over time

Zweizeiliger Elementsatz

1 59015U 24036T 25257.49841941 -.00000170 00000-0 63972-5 0 9997
2 59015 53.1608 176.7982 0001348 76.9753 283.1398 15.30190706 88347
Epoch: 14. Sept. 2025 • Age: 20 hours

Aktueller Status

Höhe 487.5 km
Geschwindigkeit 7.62 km/s
Subsatellitenpunkt -36.39°S, 23.06°E
Startdatum 23. Feb. 2024
Alter 1.5 years
Typ internet

Technische Details

Klassifizierung Payload
Masse 730.00 kg
Trockenmasse 700.00 kg
Gesamtmasse 730.00 kg
Länge 0.30 m
Durchmesser 4.10 m
Spannweite 29.00 m
Form Box + pan
Hersteller SPXS
Bus-Typ Starlink V2M
Phasenstatus In Orbit
Besitzer/Staat SPXS/US

Große Konstellationen

Loading constellations...